Tracking 25648 objects as of 17-May-2022
HD Live streaming from Space Station
objects crossing your sky now

COSMOS 2251 DEB

Track COSMOS 2251 DEB now!
10-day predictions


NORAD ID: 38054
Int'l Code: 1993-036BRL
Perigee: 785.1 km
Apogee: 1,364.8 km
Inclination: 74.0 °
Period: 106.6 minutes
Semi major axis: 7445 km
RCS: 0.0181 m2 (small)
Launch date: June 16, 1993
Source: Commonwealth of Independent States (former USSR) (CIS)
Launch site: PLESETSK MISSILE AND SPACE COMPLEX (PKMTR)

Note: This is SATELLITE DEBRIS
aabbcc
Your satellite tracking list
Your tracking list is empty




NASA's NSSDC Master Catalog

Two Line Element Set (TLE):
1 38054U 93036BRL 22136.66709560  .00001585  00000-0  15389-2 0  9991
2 38054  73.9572 219.5711 0389268  91.7802  55.0623 13.51208346552628
Source of the keplerian elements: AFSPC